Regional Weather Roundup
Issued by NWS

Home | Current Version | Previous Version | Graphics & Text | Print | Product List | Glossary Off
Versions: 1 2 3 4 5 6 7 8 9 10 11 12 13 14 15 16 17 18 19 20 21 22 23 24 25 26 27 28 29 30 31 32 33 34 35 36 37 38 39 40 41 42 43 44 45 46 47 48 49 50

000
ASUS43 KLSX 041807
RWRMO

WEATHER SUMMARY FOR MISSOURI
NATIONAL WEATHER SERVICE SPRINGFIELD MO
1200 PM CST WED MAR 04 2015

NOTE: "FAIR" INDICATES FEW OR NO CLOUDS BELOW 12,000 FEET WITH NO
       SIGNIFICANT WEATHER AND/OR OBSTRUCTIONS TO VISIBILITY.
       CURRENT SKY AND/OR WEATHER CONDITIONS ARE NOT AVAILABLE FOR
       CHILLICOTHE AND FARMINGTON.

MOZ001>031-035>038-043-044-053-054-041900-
...NORTHERN AND WESTERN MISSOURI...

CITY           SKY/WX    TMP DP  RH WIND       PRES   REMARKS
KANSAS CTY INT CLOUDY    25   6  44 N14       30.30F WCI  13
6HR MIN TEMP:  18; 6HR MAX TEMP:  25; 6HR PCP: TRACE;

KANSAS C DTWN  CLOUDY    26   4  38 N17       30.31F WCI  13
6HR MIN TEMP:  21; 6HR MAX TEMP:  27; 6HR PCP: TRACE;

LEE`S SUMMIT   CLOUDY    24   6  46 N15       30.30S WCI  11
6HR MIN TEMP:  18; 6HR MAX TEMP:  24; 6HR PCP: TRACE;

ST JOSEPH      FAIR      26   5  40 N10       30.33F WCI  16
6HR MIN TEMP:  18; 6HR MAX TEMP:  26;

CHILLICOTHE      N/A     25   5  42 N12G17    30.33R WCI  14
6HR MIN TEMP:  19; 6HR MAX TEMP:  26;


$$
MOZ066>068-077>081-088>096-101>105-041900-
...SOUTHWEST MISSOURI...

CITY           SKY/WX    TMP DP  RH WIND       PRES   REMARKS
SPRINGFIELD    LGT SNOW  22  17  81 N22G29    30.17F VSB 1   WCI   6
6HR MIN TEMP:  22; 6HR MAX TEMP:  32; 6HR PCP:  0.12;

JOPLIN         LGT SNOW  23  15  71 N17G24    30.24S WCI   9
6HR MIN TEMP:  21; 6HR MAX TEMP:  30; 6HR PCP:  0.05;


$$
MOZ032>034-039>042-045>050-055>058-069>072-041900-
...CENTRAL MISSOURI...

CITY           SKY/WX    TMP DP  RH WIND       PRES   REMARKS
COLUMBIA       CLOUDY    21   7  54 N14       30.27R WCI   8
6HR MIN TEMP:  19; 6HR MAX TEMP:  24; 6HR PCP:  0.04;

JEFFERSON CITY CLOUDY    22   4  46 N14       30.30F WCI   9
6HR MIN TEMP:  20; 6HR MAX TEMP:  27; 6HR PCP: TRACE;

ROLLA          LGT SNOW  19  11  70 N15G23    30.22R WCI   5
6HR MIN TEMP:  17; 6HR MAX TEMP:  28; 6HR PCP:  0.01;

SEDALIA        CLOUDY    23   8  52 N14       30.29S WCI  11
6HR MIN TEMP:  20; 6HR MAX TEMP:  23; 6HR PCP:  0.01;

WHITEMAN AFB   PTSUNNY   23   7  50 N21       30.28R WCI   8
WARRENSBURG    CLOUDY    27   9  46 N14       30.30F WCI  15
OSAGE BEACH    CLOUDY    23   9  54 N7        30.26R WCI  15

$$
MOZ051-052-059>065-041900-
...EAST CENTRAL MISSOURI...

CITY           SKY/WX    TMP DP  RH WIND       PRES   REMARKS
ST LOUIS INTL  CLOUDY    23   7  50 N10       30.26R WCI  12
6HR MIN TEMP:  20; 6HR MAX TEMP:  29; 6HR PCP: TRACE;

SPIRIT OF STL  CLOUDY    22   5  48 N12       30.26R WCI  10
6HR MIN TEMP:  19; 6HR MAX TEMP:  27; 6HR PCP: TRACE;

ST CHARLES     CLOUDY    22   5  48 N10       30.27R WCI  11
6HR MIN TEMP:  20; 6HR MAX TEMP:  25;


$$
MOZ072>076-082>087-097>100-106>115-041900-
...SOUTH CENTRAL AND SOUTHEAST MISSOURI...

CITY           SKY/WX    TMP DP  RH WIND       PRES   REMARKS
CAPE GIRARDEAU FRZ RAIN  28  23  81 N17G25    30.13S WCI  16
6HR MIN TEMP:  28; 6HR MAX TEMP:  36; 6HR PCP:  0.37;

FARMINGTON     CLOUDY    19  16  86 N10G18    30.20S VSB 1   WCI   8
6HR MIN TEMP:  19; 6HR MAX TEMP:  32; 6HR PCP:  0.04;

POPLAR BLUFF   MIX PCPN  31  26  82 N21       30.09S WCI  18
6HR MIN TEMP:  31; 6HR MAX TEMP:  38; 6HR PCP:  0.44;

WEST PLAINS    LGT SNOW  23  18  81 N17G28    30.12R WCI   9
6HR MIN TEMP:  23; 6HR MAX TEMP:  34; 6HR PCP:  0.25;


$$


USA.gov is the U.S. government's official web portal to all federal, state and local government web resources and services.